Volver al catálogo

STARLINK-34122

ActivoComunicacionesVLEO
NORAD 64117·PAYLOAD·🇺🇸 United States

Lanzado May 23, 2025 desde Vandenberg Space Force Base

Loading…

Próximos Pases (próximas 24 horas)

TLE

ActualizadoSource: CelesTrak SupGP

Época: Sep 14, 2026, 22:21 UTC

1 64117C 25110X   26257.93173611  .00016883  00000+0  54278-3 0  2572
2 64117  53.1583 226.1024 0001397  96.5851 114.4729 15.31701365    18

Sigue STARLINK-34122 en tiempo real con AllMySat

Download on the App Store